TimeEST,TemperatureF,Dew PointF,Humidity,Sea Level PressureIn,VisibilityMPH,Wind Direction,Wind SpeedMPH,Gust SpeedMPH,PrecipitationIn,Events,Conditions,WindDirDegrees,DateUTC
12:22 AM,35.6,33.8,93,29.41,10.0,NNW,8.1,-,0.01,Rain,Light Rain,340,2012-12-27 05:22:00
12:53 AM,34.0,32.0,92,29.43,7.0,NW,9.2,-,0.02,Rain,Light Rain,320,2012-12-27 05:53:00
1:53 AM,34.0,32.0,92,29.47,6.0,NW,10.4,18.4,0.09,Rain,Light Rain,320,2012-12-27 06:53:00
2:00 AM,33.8,32.0,93,29.45,9.0,NW,10.4,18.4,0.00,Rain,Light Rain,320,2012-12-27 07:00:00
2:14 AM,33.8,32.0,93,29.46,10.0,NW,15.0,19.6,0.01,Rain,Light Rain,310,2012-12-27 07:14:00
2:35 AM,33.8,30.2,87,29.47,5.0,NW,12.7,-,0.01,Rain,Light Freezing Rain,320,2012-12-27 07:35:00
2:44 AM,33.8,30.2,87,29.48,4.0,NW,12.7,20.7,0.02,Snow,Light Snow,310,2012-12-27 07:44:00
2:53 AM,33.1,30.9,92,29.50,4.0,NW,11.5,-,0.02,Snow,Light Snow,310,2012-12-27 07:53:00
3:27 AM,33.8,30.2,87,29.46,5.0,NNW,11.5,18.4,0.01,Snow,Light Snow,340,2012-12-27 08:27:00
3:53 AM,33.1,30.9,92,29.49,8.0,NW,11.5,-,0.01,Snow,Light Snow,310,2012-12-27 08:53:00
4:00 AM,33.8,30.2,87,29.48,9.0,NW,10.4,-,0.01,,Overcast,320,2012-12-27 09:00:00
4:10 AM,33.8,30.2,87,29.48,6.0,NW,12.7,-,0.01,Snow,Light Snow,310,2012-12-27 09:10:00
4:49 AM,33.8,30.2,87,29.49,10.0,WNW,12.7,-,0.01,,Overcast,300,2012-12-27 09:49:00
4:53 AM,33.1,30.0,89,29.52,10.0,WNW,13.8,-,0.01,,Overcast,300,2012-12-27 09:53:00
5:53 AM,33.1,30.0,89,29.55,10.0,WNW,10.4,-,N/A,,Overcast,300,2012-12-27 10:53:00
6:38 AM,33.8,28.4,81,29.56,10.0,WNW,13.8,-,N/A,,Overcast,290,2012-12-27 11:38:00
6:53 AM,33.1,28.9,85,29.59,9.0,WNW,10.4,-,0.00,Snow,Light Snow,290,2012-12-27 11:53:00
7:30 AM,33.8,28.4,81,29.59,10.0,WNW,13.8,19.6,0.00,,Overcast,290,2012-12-27 12:30:00
7:53 AM,34.0,27.0,75,29.63,10.0,WNW,12.7,20.7,0.00,,Overcast,290,2012-12-27 12:53:00
8:39 AM,33.8,26.6,75,29.63,10.0,WNW,16.1,27.6,N/A,,Overcast,300,2012-12-27 13:39:00
8:53 AM,34.0,26.1,73,29.65,10.0,WNW,16.1,27.6,N/A,,Overcast,300,2012-12-27 13:53:00
9:46 AM,33.8,26.6,75,29.67,10.0,NW,17.3,28.8,N/A,,Overcast,310,2012-12-27 14:46:00
9:53 AM,34.0,26.1,73,29.69,10.0,WNW,21.9,27.6,N/A,,Overcast,300,2012-12-27 14:53:00
10:04 AM,33.8,26.6,75,29.68,10.0,WNW,17.3,33.4,N/A,,Overcast,300,2012-12-27 15:04:00
10:40 AM,35.6,26.6,70,29.71,10.0,WNW,17.3,23.0,N/A,,Overcast,300,2012-12-27 15:40:00
10:53 AM,34.0,26.1,73,29.73,10.0,WNW,12.7,21.9,N/A,,Overcast,300,2012-12-27 15:53:00
11:53 AM,34.0,24.1,67,29.75,10.0,NW,19.6,27.6,N/A,,Overcast,310,2012-12-27 16:53:00
12:53 PM,34.0,23.0,64,29.75,10.0,WNW,20.7,26.5,N/A,,Overcast,300,2012-12-27 17:53:00
1:53 PM,34.0,21.9,61,29.78,10.0,WNW,17.3,29.9,N/A,,Overcast,300,2012-12-27 18:53:00
2:53 PM,34.0,23.0,64,29.79,10.0,WNW,18.4,24.2,N/A,,Overcast,300,2012-12-27 19:53:00
3:53 PM,34.0,23.0,64,29.83,10.0,WNW,13.8,-,N/A,,Overcast,290,2012-12-27 20:53:00
4:53 PM,33.1,23.0,66,29.85,10.0,West,15.0,20.7,N/A,,Overcast,280,2012-12-27 21:53:00
5:53 PM,33.1,24.1,70,29.89,10.0,West,4.6,-,N/A,,Overcast,270,2012-12-27 22:53:00
7:53 PM,33.1,24.1,70,29.94,10.0,WNW,11.5,-,N/A,,Overcast,290,2012-12-28 00:53:00
8:53 PM,33.1,24.1,70,29.96,10.0,NW,11.5,-,N/A,,Overcast,310,2012-12-28 01:53:00
9:53 PM,32.0,24.1,73,29.98,10.0,NW,9.2,-,N/A,,Overcast,320,2012-12-28 02:53:00
10:53 PM,32.0,24.1,73,29.99,10.0,NW,9.2,-,N/A,,Overcast,310,2012-12-28 03:53:00
11:53 PM,32.0,24.1,73,30.00,10.0,WNW,6.9,-,N/A,,Overcast,290,2012-12-28 04:53:00